Regional Weather Roundup
Issued by NWS Northern Indiana

Home | Current Version | Previous Version | Text Only | Print | Product List | Glossary Off
Versions: 1 2 3 4 5 6 7 8 9 10 11 12 13 14 15 16 17 18 19 20 21 22 23 24 25 26 27 28 29 30 31 32 33 34 35 36 37 38 39 40 41 42 43 44 45 46 47 48 49 50

000
ASUS43 KIWX 240410
RWRIWX

KIWX WEATHER ROUNDUP
NATIONAL WEATHER SERVICE NORTHERN INDIANA
1200 AM EDT THU APR 24 2014

NOTE: "FAIR" INDICATES FEW OR NO CLOUDS BELOW 12,000 FEET WITH NO
SIGNIFICANT WEATHER AND/OR OBSTRUCTIONS TO VISIBILITY.

* THESE STATIONS ARE NOT UNDER NWS QUALITY CONTROL. THEY ALSO MAY NOT
  REPORT WEATHER SUCH AS PRECIPITATION OR FOG.

INZ001>027-240500-
NORTHERN INDIANA

CITY           SKY/WX    TMP DP  RH WIND       PRES   REMARKS
GARY*          CLOUDY    42  33  69 E6        30.07F
VALPARAISO     CLOUDY    41  30  65 NE8       30.06F
MICHIGAN CITY* CLOUDY    41  30  65 E5        30.07F
LAPORTE*       CLOUDY    41  30  63 E5        30.07F
SOUTH BEND     CLOUDY    45  29  53 E3        30.09F
GOSHEN         CLOUDY    49  34  56 N5        30.08F
MONTICELLO*    CLOUDY    50  37  61 NE8       30.04F
LOGANSPORT*    CLOUDY    50  32  50 E6        30.06F
ROCHESTER*     MOCLDY    50  36  57 NE3       30.07F
WARSAW*        MOCLDY    46  36  66 N5        30.08F
ANGOLA*        CLEAR     48  25  40 E6        30.09S
FORT WAYNE     MOCLDY    48  29  47 E5        30.09F
HUNTINGTON*    FAIR      48  31  51 E5        30.08F
PERU/GRISSOM   CLOUDY    52  32  46 E7        30.06F
MARION*        PTCLDY    48  32  54 SE3       30.08F

$$
INZ028>050-240500-
CENTRAL INDIANA

CITY           SKY/WX    TMP DP  RH WIND       PRES   REMARKS
LAFAYETTE      CLOUDY    52  30  43 E8        30.04F
KOKOMO*        CLOUDY    50  36  57 E8        30.07F
MUNCIE*          N/A     50  31  48 SE3       30.08F
INDIANAPOLIS   CLOUDY    54  30  40 E8        30.03F

$$
MIZ043>046-050>051-056>058-064>065-071>073-077>080-240500-
SOUTHWEST LOWER MICHIGAN

CITY           SKY/WX    TMP DP  RH WIND       PRES   REMARKS
BATTLE CREEK   CLOUDY    47  30  51 N3        30.10F
BENTON HARBOR  CLOUDY    41  27  57 E3        30.08F
COLDWATER*     CLOUDY    48  21  34 E5        30.09F
HILLSDALE*     CLOUDY    48  20  32 E6        30.09F
HOLLAND        CLOUDY    45  26  47 E3        30.09F
GRAND RAPIDS   CLOUDY    47  26  44 CALM      30.09F
KALAMAZOO      CLOUDY    48  30  49 NE3       30.10F
STURGIS*       CLOUDY    48  32  53 NE5       30.08F
THREE RIVERS*  CLOUDY    48  33  55 CALM      30.09F

$$
OHZ001>008-015>018-024>025-240500-
NORTHWEST OHIO

CITY           SKY/WX    TMP DP  RH WIND       PRES   REMARKS
WAUSEON*       FAIR      46  30  53 E9        30.11F
DEFIANCE       CLOUDY    50  29  44 E5        30.11S
FINDLAY        CLOUDY    47  32  56 E8        30.11R
TOLEDO EXPRESS CLOUDY    46  30  53 E5        30.12S
TOLEDO METCALF CLOUDY    45  31  58 SE3       30.14R
LIMA           MOCLDY    47  33  58 SE10      30.09F

$$
&&



USA.gov is the U.S. government's official web portal to all federal, state and local government web resources and services.